Time,TemperatureF,DewpointF,PressureIn,WindDirection,WindDirectionDegrees,WindSpeedMPH,WindSpeedGustMPH,Humidity,HourlyPrecipIn,Conditions,Clouds,dailyrainin,SoftwareType,DateUTC
2013-06-25 00:01:00,69.2,64.5,29.93,SSW,193,0.0,0.0,85,0.00,RA,,0.00,WeatherDisplay:10.37,2013-06-25 04:01:00,
2013-06-25 00:02:00,69.1,64.4,29.93,SSW,194,0.0,0.0,85,0.00,RA,,0.00,WeatherDisplay:10.37,2013-06-25 04:02:00,
2013-06-25 00:03:00,69.1,64.4,29.93,SSW,193,0.0,0.0,85,0.00,RA,,0.00,WeatherDisplay:10.37,2013-06-25 04:03:00,
2013-06-25 00:08:00,69.0,64.6,29.93,SSW,193,0.0,0.0,86,0.00,RA,,0.00,WeatherDisplay:10.37,2013-06-25 04:08:00,
2013-06-25 00:13:00,68.8,64.8,29.93,SSW,193,0.0,0.0,87,0.00,,,0.00,WeatherDisplay:10.37,2013-06-25 04:13:00,
2013-06-25 00:18:00,68.7,64.7,29.93,SSW,194,0.0,0.0,87,0.00,,,0.00,WeatherDisplay:10.37,2013-06-25 04:18:00,
2013-06-25 00:23:00,68.5,64.5,29.93,SSW,194,0.0,0.0,87,0.00,,,0.00,WeatherDisplay:10.37,2013-06-25 04:23:00,
2013-06-25 00:28:00,68.3,64.6,29.92,SSW,194,0.0,0.0,88,0.00,,,0.00,WeatherDisplay:10.37,2013-06-25 04:28:00,
2013-06-25 00:33:00,68.2,64.5,29.93,SSW,194,0.0,0.0,88,0.00,,,0.00,WeatherDisplay:10.37,2013-06-25 04:33:00,
2013-06-25 00:38:00,68.1,64.7,29.93,SSW,194,0.0,0.0,89,0.00,,,0.00,WeatherDisplay:10.37,2013-06-25 04:38:00,
2013-06-25 00:43:00,67.9,64.5,29.93,SSW,194,0.0,0.0,89,0.00,,,0.00,WeatherDisplay:10.37,2013-06-25 04:43:00,
2013-06-25 00:48:00,67.8,64.4,29.93,SSW,194,0.0,0.0,89,0.00,,,0.00,WeatherDisplay:10.37,2013-06-25 04:48:00,
2013-06-25 00:53:00,67.7,64.3,29.93,SSW,194,0.0,0.0,89,0.00,,,0.00,WeatherDisplay:10.37,2013-06-25 04:53:00,
2013-06-25 00:58:00,67.6,64.2,29.92,SSW,194,0.0,0.0,89,0.00,,,0.00,WeatherDisplay:10.37,2013-06-25 04:58:00,
2013-06-25 01:03:00,67.5,64.1,29.92,SSW,194,0.0,0.0,89,0.00,,,0.00,WeatherDisplay:10.37,2013-06-25 05:03:00,
2013-06-25 01:08:00,67.5,64.1,29.92,SSW,194,0.0,0.0,89,0.00,,,0.00,WeatherDisplay:10.37,2013-06-25 05:08:00,
2013-06-25 01:13:00,67.4,64.0,29.92,SSW,194,0.0,0.0,89,0.00,,,0.00,WeatherDisplay:10.37,2013-06-25 05:13:00,
2013-06-25 01:18:00,67.4,64.0,29.92,SSW,194,0.0,0.0,89,0.00,,,0.00,WeatherDisplay:10.37,2013-06-25 05:18:00,
2013-06-25 01:23:00,67.4,64.0,29.92,SSW,194,0.0,0.0,89,0.00,,,0.00,WeatherDisplay:10.37,2013-06-25 05:23:00,
2013-06-25 01:28:00,67.4,64.0,29.92,SSW,194,0.0,0.0,89,0.00,,,0.00,WeatherDisplay:10.37,2013-06-25 05:28:00,
2013-06-25 01:33:00,67.3,63.9,29.92,SSW,194,0.0,0.0,89,0.00,,,0.00,WeatherDisplay:10.37,2013-06-25 05:33:00,
2013-06-25 01:38:00,67.3,63.9,29.92,SSW,194,0.0,0.0,89,0.00,,,0.00,WeatherDisplay:10.37,2013-06-25 05:38:00,
2013-06-25 01:43:00,67.2,63.8,29.92,SSW,194,0.0,0.0,89,0.00,,,0.00,WeatherDisplay:10.37,2013-06-25 05:43:00,
2013-06-25 01:48:00,67.1,63.7,29.92,SSW,194,0.0,0.0,89,0.00,,,0.00,WeatherDisplay:10.37,2013-06-25 05:48:00,
2013-06-25 01:53:00,67.0,63.3,29.92,SSW,194,0.0,0.0,88,0.00,,,0.00,WeatherDisplay:10.37,2013-06-25 05:53:00,
2013-06-25 01:58:00,66.9,63.2,29.92,SSW,194,0.0,0.0,88,0.00,,,0.00,WeatherDisplay:10.37,2013-06-25 05:58:00,
2013-06-25 02:03:00,66.9,63.2,29.92,SSW,194,0.0,0.0,88,0.00,,,0.00,WeatherDisplay:10.37,2013-06-25 06:03:00,
2013-06-25 02:08:00,66.9,63.2,29.91,SSW,194,0.0,0.0,88,0.00,,,0.00,WeatherDisplay:10.37,2013-06-25 06:08:00,
2013-06-25 02:13:00,66.8,63.1,29.92,SSW,194,0.0,0.0,88,0.00,,,0.00,WeatherDisplay:10.37,2013-06-25 06:13:00,
2013-06-25 02:18:00,66.7,63.0,29.92,SSW,194,0.0,0.0,88,0.00,,,0.00,WeatherDisplay:10.37,2013-06-25 06:18:00,
2013-06-25 02:23:00,66.6,62.9,29.91,SSW,194,0.0,0.0,88,0.00,,,0.00,WeatherDisplay:10.37,2013-06-25 06:23:00,
2013-06-25 02:28:00,66.6,62.9,29.92,SSW,194,0.0,0.0,88,0.00,,,0.00,WeatherDisplay:10.37,2013-06-25 06:28:00,
2013-06-25 02:33:00,66.6,62.6,29.91,SSW,194,0.0,0.0,87,0.00,,,0.00,WeatherDisplay:10.37,2013-06-25 06:33:00,
2013-06-25 02:38:00,66.6,62.6,29.91,SSW,194,0.0,0.0,87,0.00,,,0.00,WeatherDisplay:10.37,2013-06-25 06:38:00,
2013-06-25 02:44:00,66.5,62.5,29.91,SSW,194,0.0,0.0,87,0.00,,,0.00,WeatherDisplay:10.37,2013-06-25 06:44:00,
2013-06-25 02:49:00,66.5,62.5,29.91,SSW,194,0.0,0.0,87,0.00,,,0.00,WeatherDisplay:10.37,2013-06-25 06:49:00,
2013-06-25 02:54:00,66.4,62.4,29.91,SSW,194,0.0,0.0,87,0.00,,,0.00,WeatherDisplay:10.37,2013-06-25 06:54:00,
2013-06-25 02:59:00,66.4,62.4,29.91,SSW,194,0.0,0.0,87,0.00,,,0.00,WeatherDisplay:10.37,2013-06-25 06:59:00,
2013-06-25 03:04:00,66.3,62.3,29.90,SSW,194,0.0,0.0,87,0.00,,,0.00,WeatherDisplay:10.37,2013-06-25 07:04:00,
2013-06-25 03:09:00,66.3,62.3,29.91,SSW,194,0.0,0.0,87,0.00,,,0.00,WeatherDisplay:10.37,2013-06-25 07:09:00,
2013-06-25 03:14:00,66.2,62.2,29.90,SSW,194,0.0,0.0,87,0.00,,,0.00,WeatherDisplay:10.37,2013-06-25 07:14:00,
2013-06-25 03:19:00,66.2,62.2,29.90,SSW,194,0.0,0.0,87,0.00,,,0.00,WeatherDisplay:10.37,2013-06-25 07:19:00,
2013-06-25 03:24:00,66.1,62.1,29.90,SSW,194,0.0,0.0,87,0.00,,,0.00,WeatherDisplay:10.37,2013-06-25 07:24:00,
2013-06-25 03:29:00,66.0,62.0,29.89,SSW,193,0.0,0.0,87,0.00,,,0.00,WeatherDisplay:10.37,2013-06-25 07:29:00,
2013-06-25 03:34:00,66.0,61.7,29.89,SSW,194,0.0,0.0,86,0.00,,,0.00,WeatherDisplay:10.37,2013-06-25 07:34:00,
2013-06-25 03:39:00,66.0,61.7,29.89,SSW,193,0.0,0.0,86,0.00,,,0.00,WeatherDisplay:10.37,2013-06-25 07:39:00,
2013-06-25 03:44:00,66.0,61.7,29.89,SSW,193,0.0,0.0,86,0.00,,,0.00,WeatherDisplay:10.37,2013-06-25 07:44:00,
2013-06-25 03:49:00,66.1,61.8,29.88,SSW,194,0.0,0.0,86,0.00,,,0.00,WeatherDisplay:10.37,2013-06-25 07:49:00,
2013-06-25 03:54:00,66.1,61.8,29.89,SSW,193,0.0,0.0,86,0.00,,,0.00,WeatherDisplay:10.37,2013-06-25 07:54:00,
2013-06-25 03:59:00,66.1,61.8,29.88,SSW,194,0.0,0.0,86,0.00,,,0.00,WeatherDisplay:10.37,2013-06-25 07:59:00,
2013-06-25 04:04:00,66.1,61.5,29.88,SSW,194,0.0,0.0,85,0.00,,,0.00,WeatherDisplay:10.37,2013-06-25 08:04:00,
2013-06-25 04:09:00,66.2,61.6,29.88,SSW,193,0.0,0.0,85,0.00,,,0.00,WeatherDisplay:10.37,2013-06-25 08:09:00,
2013-06-25 04:14:00,66.2,61.6,29.88,SSW,194,0.0,0.0,85,0.00,,,0.00,WeatherDisplay:10.37,2013-06-25 08:14:00,
2013-06-25 04:19:00,66.2,61.6,29.88,SSW,194,0.0,0.0,85,0.00,,,0.00,WeatherDisplay:10.37,2013-06-25 08:19:00,
2013-06-25 04:24:00,66.2,61.6,29.88,SSW,194,0.0,0.0,85,0.00,,,0.00,WeatherDisplay:10.37,2013-06-25 08:24:00,
2013-06-25 04:29:00,66.2,61.6,29.89,SSW,194,0.0,0.0,85,0.00,,,0.00,WeatherDisplay:10.37,2013-06-25 08:29:00,
2013-06-25 04:34:00,66.3,61.7,29.89,SSW,194,0.0,0.0,85,0.00,,,0.00,WeatherDisplay:10.37,2013-06-25 08:34:00,
2013-06-25 04:39:00,66.3,61.7,29.89,SSW,194,0.0,0.0,85,0.00,,,0.00,WeatherDisplay:10.37,2013-06-25 08:39:00,
2013-06-25 04:44:00,66.3,61.7,29.89,SSW,194,0.0,0.0,85,0.00,,,0.00,WeatherDisplay:10.37,2013-06-25 08:44:00,
2013-06-25 04:49:00,66.3,61.7,29.89,SSW,193,0.0,0.0,85,0.00,,,0.00,WeatherDisplay:10.37,2013-06-25 08:49:00,
2013-06-25 04:54:00,66.3,62.0,29.89,SSW,194,0.0,0.0,86,0.00,,,0.00,WeatherDisplay:10.37,2013-06-25 08:54:00,
2013-06-25 04:59:00,66.2,61.9,29.89,SSW,194,0.0,0.0,86,0.00,,,0.00,WeatherDisplay:10.37,2013-06-25 08:59:00,
2013-06-25 05:04:00,66.2,61.9,29.89,SSW,194,0.0,0.0,86,0.00,CLR,,0.00,WeatherDisplay:10.37,2013-06-25 09:04:00,
2013-06-25 05:09:00,66.1,61.8,29.88,SE,144,0.0,0.0,86,0.00,CLR,,0.00,WeatherDisplay:10.37,2013-06-25 09:09:00,
2013-06-25 05:14:00,66.1,61.5,29.88,SE,143,0.0,0.0,85,0.00,CLR,,0.00,WeatherDisplay:10.37,2013-06-25 09:14:00,
2013-06-25 05:19:00,66.1,61.5,29.88,SE,143,0.0,0.0,85,0.00,CLR,,0.00,WeatherDisplay:10.37,2013-06-25 09:19:00,
2013-06-25 05:24:00,66.1,61.8,29.88,SE,144,0.0,0.0,86,0.00,CLR,,0.00,WeatherDisplay:10.37,2013-06-25 09:24:00,
2013-06-25 05:29:00,66.1,61.5,29.88,South,179,0.0,0.0,85,0.00,CLR,,0.00,WeatherDisplay:10.37,2013-06-25 09:29:00,
2013-06-25 05:34:00,66.0,61.4,29.88,South,180,0.0,0.0,85,0.00,CLR,,0.00,WeatherDisplay:10.37,2013-06-25 09:34:00,
2013-06-25 05:39:00,66.0,61.4,29.88,South,180,0.0,0.0,85,0.00,CLR,,0.00,WeatherDisplay:10.37,2013-06-25 09:39:00,
2013-06-25 05:44:00,66.0,61.4,29.88,South,179,0.0,0.0,85,0.00,CLR,,0.00,WeatherDisplay:10.37,2013-06-25 09:44:00,
2013-06-25 05:49:00,66.0,61.4,29.88,South,180,0.0,0.0,85,0.00,CLR,,0.00,WeatherDisplay:10.37,2013-06-25 09:49:00,
2013-06-25 05:54:00,66.0,61.4,29.88,South,179,0.0,0.0,85,0.00,CLR,,0.00,WeatherDisplay:10.37,2013-06-25 09:54:00,
2013-06-25 05:59:00,66.0,61.4,29.88,South,180,0.0,0.0,85,0.00,CLR,,0.00,WeatherDisplay:10.37,2013-06-25 09:59:00,
2013-06-25 06:04:00,66.1,61.5,29.88,SW,217,0.0,0.0,85,0.00,CLR,,0.00,WeatherDisplay:10.37,2013-06-25 10:04:00,
2013-06-25 06:09:00,66.1,61.5,29.88,SW,217,0.0,0.0,85,0.00,CLR,,0.00,WeatherDisplay:10.37,2013-06-25 10:09:00,
2013-06-25 06:14:00,66.2,61.6,29.88,SE,127,0.0,0.0,85,0.00,CLR,,0.00,WeatherDisplay:10.37,2013-06-25 10:14:00,
2013-06-25 06:19:00,66.3,61.7,29.88,SE,127,0.0,0.0,85,0.00,CLR,,0.00,WeatherDisplay:10.37,2013-06-25 10:19:00,
2013-06-25 06:24:00,66.4,61.8,29.88,SE,127,0.0,0.0,85,0.00,CLR,,0.00,WeatherDisplay:10.37,2013-06-25 10:24:00,
2013-06-25 06:29:00,66.5,61.8,29.88,North,10,0.0,0.0,85,0.00,CLR,,0.00,WeatherDisplay:10.37,2013-06-25 10:29:00,
2013-06-25 06:34:00,66.7,62.0,29.88,North,10,0.0,0.0,85,0.00,CLR,,0.00,WeatherDisplay:10.37,2013-06-25 10:34:00,
2013-06-25 06:39:00,66.9,62.2,29.88,SSE,150,0.0,0.0,85,0.00,CLR,,0.00,WeatherDisplay:10.37,2013-06-25 10:39:00,
2013-06-25 06:44:00,67.1,62.4,29.88,SSE,150,0.0,0.0,85,0.00,CLR,,0.00,WeatherDisplay:10.37,2013-06-25 10:44:00,
2013-06-25 06:49:00,67.3,62.6,29.88,SSE,151,0.0,0.0,85,0.00,CLR,,0.00,WeatherDisplay:10.37,2013-06-25 10:49:00,
2013-06-25 06:54:00,67.5,63.2,29.88,SE,135,0.0,0.0,86,0.00,CLR,,0.00,WeatherDisplay:10.37,2013-06-25 10:54:00,
2013-06-25 06:59:00,67.8,63.5,29.88,SSE,152,0.0,0.0,86,0.00,CLR,,0.00,WeatherDisplay:10.37,2013-06-25 10:59:00,
2013-06-25 07:04:00,68.2,63.9,29.88,SSE,152,0.0,0.0,86,0.00,CLR,,0.00,WeatherDisplay:10.37,2013-06-25 11:04:00,
2013-06-25 07:09:00,68.5,64.5,29.88,SSE,152,0.0,0.0,87,0.00,CLR,,0.00,WeatherDisplay:10.37,2013-06-25 11:09:00,
2013-06-25 07:14:00,69.0,65.3,29.88,SSE,148,0.0,0.0,88,0.00,CLR,,0.00,WeatherDisplay:10.37,2013-06-25 11:14:00,
2013-06-25 07:19:00,69.4,66.0,29.88,ENE,65,0.0,0.0,89,0.00,CLR,,0.00,WeatherDisplay:10.37,2013-06-25 11:19:00,
2013-06-25 07:24:00,69.9,66.8,29.88,SSE,152,0.0,0.0,90,0.00,CLR,,0.00,WeatherDisplay:10.37,2013-06-25 11:24:00,
2013-06-25 07:29:00,70.4,67.3,29.88,SSE,161,0.0,0.0,90,0.00,CLR,,0.00,WeatherDisplay:10.37,2013-06-25 11:29:00,
2013-06-25 07:34:00,71.0,67.6,29.88,South,175,0.0,0.0,89,0.00,CLR,,0.00,WeatherDisplay:10.37,2013-06-25 11:34:00,
2013-06-25 07:39:00,71.6,68.2,29.88,South,175,0.0,0.0,89,0.00,CLR,,0.00,WeatherDisplay:10.37,2013-06-25 11:39:00,
2013-06-25 07:44:00,72.2,68.4,29.88,South,174,0.0,0.0,88,0.00,CLR,,0.00,WeatherDisplay:10.37,2013-06-25 11:44:00,
2013-06-25 07:49:00,72.8,68.7,29.88,SE,143,0.0,0.0,87,0.00,CLR,,0.00,WeatherDisplay:10.37,2013-06-25 11:49:00,
2013-06-25 07:50:00,72.9,68.8,29.88,SE,144,0.0,0.0,87,0.00,CLR,,0.00,WeatherDisplay:10.37,2013-06-25 11:50:00,
2013-06-25 07:55:00,73.3,69.2,29.88,SE,144,0.0,0.0,87,0.00,CLR,,0.00,WeatherDisplay:10.37,2013-06-25 11:55:00,
2013-06-25 08:00:00,73.7,69.2,29.88,SE,132,0.0,0.0,86,0.00,CLR,,0.00,WeatherDisplay:10.37,2013-06-25 12:00:00,
2013-06-25 08:05:00,74.4,69.9,29.88,ESE,110,1.1,1.1,86,0.00,CLR,,0.00,WeatherDisplay:10.37,2013-06-25 12:05:00,
2013-06-25 08:10:00,75.0,70.2,29.88,ESE,110,0.0,0.0,85,0.00,CLR,,0.00,WeatherDisplay:10.37,2013-06-25 12:10:00,
2013-06-25 08:15:00,75.2,70.4,29.88,ESE,110,0.0,0.0,85,0.00,CLR,,0.00,WeatherDisplay:10.37,2013-06-25 12:15:00,
2013-06-25 08:20:00,75.2,70.4,29.88,SSE,152,0.0,0.0,85,0.00,CLR,,0.00,WeatherDisplay:10.37,2013-06-25 12:20:00,
2013-06-25 08:25:00,75.1,70.3,29.88,SSE,152,0.0,0.0,85,0.00,CLR,,0.00,WeatherDisplay:10.37,2013-06-25 12:25:00,
2013-06-25 08:30:00,75.2,70.7,29.88,South,173,0.0,0.0,86,0.00,CLR,,0.00,WeatherDisplay:10.37,2013-06-25 12:30:00,
2013-06-25 08:35:00,75.2,70.7,29.88,SSE,155,1.1,1.1,86,0.00,CLR,,0.00,WeatherDisplay:10.37,2013-06-25 12:35:00,
2013-06-25 08:40:00,75.1,70.6,29.88,SSE,155,0.0,0.0,86,0.00,CLR,,0.00,WeatherDisplay:10.37,2013-06-25 12:40:00,
2013-06-25 08:45:00,74.8,70.3,29.87,SE,128,0.0,0.0,86,0.00,CLR,,0.00,WeatherDisplay:10.37,2013-06-25 12:45:00,
2013-06-25 08:50:00,74.5,70.4,29.87,SE,129,0.0,0.0,87,0.00,CLR,,0.00,WeatherDisplay:10.37,2013-06-25 12:50:00,
2013-06-25 08:55:00,74.2,70.1,29.87,SE,127,0.0,0.0,87,0.00,CLR,,0.00,WeatherDisplay:10.37,2013-06-25 12:55:00,
2013-06-25 09:00:00,74.1,70.3,29.87,SE,129,0.0,0.0,88,0.00,CLR,,0.00,WeatherDisplay:10.37,2013-06-25 13:00:00,
2013-06-25 09:05:00,74.0,70.2,29.88,SE,128,1.1,0.0,88,0.00,CLR,,0.00,WeatherDisplay:10.37,2013-06-25 13:05:00,
2013-06-25 09:10:00,73.8,70.4,29.88,SE,135,0.0,0.0,89,0.00,CLR,,0.00,WeatherDisplay:10.37,2013-06-25 13:10:00,
2013-06-25 09:15:00,73.7,70.3,29.87,SE,135,0.0,0.0,89,0.00,CLR,,0.00,WeatherDisplay:10.37,2013-06-25 13:15:00,
2013-06-25 09:20:00,73.7,70.3,29.87,SE,135,1.1,0.0,89,0.00,CLR,,0.00,WeatherDisplay:10.37,2013-06-25 13:20:00,
2013-06-25 09:25:00,73.9,70.5,29.87,SE,135,0.0,0.0,89,0.00,CLR,,0.00,WeatherDisplay:10.37,2013-06-25 13:25:00,
2013-06-25 09:30:00,74.1,70.6,29.87,ESE,112,1.1,1.1,89,0.00,CLR,,0.00,WeatherDisplay:10.37,2013-06-25 13:30:00,
2013-06-25 09:35:00,74.4,70.9,29.87,ESE,118,1.1,0.0,89,0.00,CLR,,0.00,WeatherDisplay:10.37,2013-06-25 13:35:00,
2013-06-25 09:40:00,74.7,71.2,29.87,ESE,110,0.0,0.0,89,0.00,CLR,,0.00,WeatherDisplay:10.37,2013-06-25 13:40:00,
2013-06-25 09:45:00,75.3,71.8,29.87,ESE,110,0.0,0.0,89,0.00,CLR,,0.00,WeatherDisplay:10.37,2013-06-25 13:45:00,
2013-06-25 09:50:00,75.8,72.0,29.87,SSE,153,0.0,0.0,88,0.00,CLR,,0.00,WeatherDisplay:10.37,2013-06-25 13:50:00,
2013-06-25 09:55:00,76.5,72.7,29.87,SE,134,0.0,0.0,88,0.00,CLR,,0.00,WeatherDisplay:10.37,2013-06-25 13:55:00,
2013-06-25 10:00:00,77.6,73.1,29.87,South,170,3.5,3.5,86,0.00,CLR,,0.00,WeatherDisplay:10.37,2013-06-25 14:00:00,
2013-06-25 10:05:00,78.6,73.7,29.87,ESE,103,2.0,2.0,85,0.00,CLR,,0.00,WeatherDisplay:10.37,2013-06-25 14:05:00,
2013-06-25 10:10:00,79.1,73.5,29.87,SSE,152,2.3,2.3,83,0.00,CLR,,0.00,WeatherDisplay:10.37,2013-06-25 14:10:00,
2013-06-25 10:15:00,79.4,73.8,29.87,SSW,201,1.1,0.0,83,0.00,CLR,,0.00,WeatherDisplay:10.37,2013-06-25 14:15:00,
2013-06-25 10:20:00,79.6,73.6,29.87,ESE,114,0.0,0.3,82,0.00,CLR,,0.00,WeatherDisplay:10.37,2013-06-25 14:20:00,
2013-06-25 10:25:00,79.5,73.5,29.87,ENE,70,2.3,2.3,82,0.00,CLR,,0.00,WeatherDisplay:10.37,2013-06-25 14:25:00,
2013-06-25 10:30:00,79.1,73.5,29.87,East,82,4.0,4.0,83,0.00,CLR,,0.00,WeatherDisplay:10.37,2013-06-25 14:30:00,
2013-06-25 10:35:00,78.9,72.9,29.87,SSW,210,2.3,2.3,82,0.00,CLR,,0.00,WeatherDisplay:10.37,2013-06-25 14:35:00,
2013-06-25 10:40:00,78.9,72.9,29.87,North,351,2.0,2.0,82,0.00,CLR,,0.00,WeatherDisplay:10.37,2013-06-25 14:40:00,
2013-06-25 10:45:00,78.7,72.7,29.87,ENE,74,1.1,0.0,82,0.00,CLR,,0.00,WeatherDisplay:10.37,2013-06-25 14:45:00,
2013-06-25 10:50:00,78.6,72.3,29.87,SE,146,1.1,0.0,81,0.00,CLR,,0.00,WeatherDisplay:10.37,2013-06-25 14:50:00,
2013-06-25 10:55:00,78.5,72.5,29.87,SSE,152,2.0,2.0,82,0.00,CLR,,0.00,WeatherDisplay:10.37,2013-06-25 14:55:00,
2013-06-25 11:01:00,78.4,71.7,29.87,ESE,108,2.3,2.3,80,0.00,CLR,,0.00,WeatherDisplay:10.37,2013-06-25 15:01:00,
2013-06-25 11:06:00,78.1,71.8,29.87,West,281,3.0,3.0,81,0.01,RA,,0.01,WeatherDisplay:10.37,2013-06-25 15:06:00,
2013-06-25 11:11:00,77.2,72.3,29.87,ESE,110,1.1,0.0,85,0.01,RA,,0.01,WeatherDisplay:10.37,2013-06-25 15:11:00,
2013-06-25 11:16:00,76.1,71.6,29.87,ESE,104,2.3,2.3,86,0.01,CLR,,0.01,WeatherDisplay:10.37,2013-06-25 15:16:00,
2013-06-25 11:21:00,75.3,71.2,29.87,SSE,165,1.1,0.0,87,0.02,RA,,0.02,WeatherDisplay:10.37,2013-06-25 15:21:00,
2013-06-25 11:26:00,74.8,71.0,29.87,WNW,297,3.5,3.5,88,0.02,RA,,0.02,WeatherDisplay:10.37,2013-06-25 15:26:00,
2013-06-25 11:31:00,74.7,70.9,29.86,WNW,290,2.3,0.0,88,0.02,CLR,,0.02,WeatherDisplay:10.37,2013-06-25 15:31:00,
2013-06-25 11:36:00,74.9,71.1,29.86,NE,49,3.5,3.5,88,0.02,CLR,,0.02,WeatherDisplay:10.37,2013-06-25 15:36:00,
2013-06-25 11:41:00,75.7,71.2,29.86,ESE,117,2.3,2.3,86,0.02,CLR,,0.02,WeatherDisplay:10.37,2013-06-25 15:41:00,
2013-06-25 11:46:00,76.5,71.7,29.85,West,274,3.5,3.5,85,0.02,CLR,,0.02,WeatherDisplay:10.37,2013-06-25 15:46:00,
2013-06-25 11:51:00,77.5,71.6,29.86,West,281,3.5,3.5,82,0.02,CLR,,0.02,WeatherDisplay:10.37,2013-06-25 15:51:00,
2013-06-25 11:56:00,78.6,72.3,29.85,NE,37,3.5,3.5,81,0.02,CLR,,0.02,WeatherDisplay:10.37,2013-06-25 15:56:00,
2013-06-25 12:01:00,79.6,71.4,29.85,SE,134,3.5,3.5,76,0.02,CLR,,0.02,WeatherDisplay:10.37,2013-06-25 16:01:00,
2013-06-25 12:06:00,80.9,73.4,29.85,South,190,3.5,3.5,78,0.01,CLR,,0.02,WeatherDisplay:10.37,2013-06-25 16:06:00,
2013-06-25 12:11:00,80.7,70.8,29.85,NNE,20,3.5,3.5,72,0.01,CLR,,0.02,WeatherDisplay:10.37,2013-06-25 16:11:00,
2013-06-25 12:16:00,81.0,72.3,29.85,SE,136,3.5,3.5,75,0.01,CLR,,0.02,WeatherDisplay:10.37,2013-06-25 16:16:00,
2013-06-25 12:21:00,81.2,71.7,29.85,ESE,117,2.3,2.3,73,0.00,CLR,,0.02,WeatherDisplay:10.37,2013-06-25 16:21:00,
2013-06-25 12:26:00,81.0,72.3,29.85,ESE,110,1.1,1.1,75,0.00,CLR,,0.02,WeatherDisplay:10.37,2013-06-25 16:26:00,
2013-06-25 12:31:00,80.6,71.9,29.85,WNW,302,0.0,0.0,75,0.00,CLR,,0.02,WeatherDisplay:10.37,2013-06-25 16:31:00,
2013-06-25 12:36:00,80.2,73.1,29.85,North,353,0.0,0.0,79,0.00,CLR,,0.02,WeatherDisplay:10.37,2013-06-25 16:36:00,
2013-06-25 12:41:00,79.6,71.4,29.84,SE,134,0.0,0.0,76,0.00,CLR,,0.02,WeatherDisplay:10.37,2013-06-25 16:41:00,
2013-06-25 12:46:00,79.5,71.7,29.85,West,273,5.8,5.8,77,0.00,CLR,,0.02,WeatherDisplay:10.37,2013-06-25 16:46:00,
2013-06-25 12:51:00,79.9,71.3,29.84,WNW,282,2.3,2.3,75,0.00,CLR,,0.02,WeatherDisplay:10.37,2013-06-25 16:51:00,
2013-06-25 12:56:00,80.3,71.3,29.84,WSW,251,2.0,2.0,74,0.00,CLR,,0.02,WeatherDisplay:10.37,2013-06-25 16:56:00,
2013-06-25 13:01:00,81.0,72.7,29.84,West,264,1.1,1.1,76,0.00,CLR,,0.02,WeatherDisplay:10.37,2013-06-25 17:01:00,
2013-06-25 13:06:00,81.8,71.5,29.83,WNW,291,5.8,5.8,71,0.00,CLR,,0.02,WeatherDisplay:10.37,2013-06-25 17:06:00,
2013-06-25 13:11:00,82.0,71.2,29.83,West,270,5.0,5.0,70,0.00,CLR,,0.02,WeatherDisplay:10.37,2013-06-25 17:11:00,
2013-06-25 13:16:00,81.9,71.2,29.83,West,271,4.6,4.6,70,0.00,CLR,,0.02,WeatherDisplay:10.37,2013-06-25 17:16:00,
2013-06-25 13:21:00,82.1,70.9,29.83,WNW,297,5.8,5.8,69,0.00,CLR,,0.02,WeatherDisplay:10.37,2013-06-25 17:21:00,
2013-06-25 13:26:00,82.3,71.5,29.83,WSW,246,4.0,4.0,70,0.00,CLR,,0.02,WeatherDisplay:10.37,2013-06-25 17:26:00,
2013-06-25 13:31:00,82.3,71.5,29.83,NE,41,3.5,3.5,70,0.00,CLR,,0.02,WeatherDisplay:10.37,2013-06-25 17:31:00,
2013-06-25 13:36:00,82.5,70.9,29.83,SW,225,5.8,5.8,68,0.00,CLR,,0.02,WeatherDisplay:10.37,2013-06-25 17:36:00,
2013-06-25 13:41:00,82.5,70.4,29.83,NNW,341,11.5,11.5,67,0.00,CLR,,0.02,WeatherDisplay:10.37,2013-06-25 17:41:00,
2013-06-25 13:46:00,81.9,69.9,29.83,NE,56,6.9,6.9,67,0.00,CLR,,0.02,WeatherDisplay:10.37,2013-06-25 17:46:00,
2013-06-25 13:51:00,81.8,70.6,29.83,South,190,8.1,8.1,69,0.00,CLR,,0.02,WeatherDisplay:10.37,2013-06-25 17:51:00,
2013-06-25 13:56:00,82.2,70.6,29.83,West,264,3.5,3.5,68,0.00,CLR,,0.02,WeatherDisplay:10.37,2013-06-25 17:56:00,
2013-06-25 14:01:00,81.9,69.9,29.83,WSW,250,9.2,9.2,67,0.00,CLR,,0.02,WeatherDisplay:10.37,2013-06-25 18:01:00,
2013-06-25 14:06:00,81.6,70.4,29.83,SW,226,3.5,3.5,69,0.00,,,0.02,WeatherDisplay:10.37,2013-06-25 18:06:00,
2013-06-25 14:11:00,81.7,71.0,29.83,West,277,3.5,3.5,70,0.00,,,0.02,WeatherDisplay:10.37,2013-06-25 18:11:00,
2013-06-25 14:16:00,81.5,69.9,29.83,ENE,64,4.6,4.6,68,0.00,,,0.02,WeatherDisplay:10.37,2013-06-25 18:16:00,
2013-06-25 14:21:00,81.2,70.5,29.83,West,268,5.8,5.8,70,0.00,,,0.02,WeatherDisplay:10.37,2013-06-25 18:21:00,
2013-06-25 14:26:00,80.7,69.6,29.83,West,280,3.5,3.5,69,0.00,,,0.02,WeatherDisplay:10.37,2013-06-25 18:26:00,
2013-06-25 14:31:00,79.9,69.2,29.83,West,264,6.9,6.9,70,0.00,,,0.02,WeatherDisplay:10.37,2013-06-25 18:31:00,
2013-06-25 14:36:00,78.2,70.0,29.84,WSW,252,3.5,3.5,76,0.01,RA,,0.03,WeatherDisplay:10.37,2013-06-25 18:36:00,
2013-06-25 14:41:00,76.1,70.6,29.84,SW,217,2.3,2.3,83,0.06,RA,,0.08,WeatherDisplay:10.37,2013-06-25 18:41:00,
2013-06-25 14:46:00,74.5,70.0,29.83,NNE,33,3.5,3.5,86,0.08,RA,,0.10,WeatherDisplay:10.37,2013-06-25 18:46:00,
2013-06-25 14:51:00,74.3,70.5,29.83,NW,313,0.0,0.0,88,0.08,RA,,0.10,WeatherDisplay:10.37,2013-06-25 18:51:00,
2013-06-25 14:56:00,74.7,70.9,29.83,WSW,256,2.0,2.0,88,0.08,,,0.10,WeatherDisplay:10.37,2013-06-25 18:56:00,
2013-06-25 15:01:00,75.3,71.5,29.83,WSW,255,1.1,1.1,88,0.08,,,0.10,WeatherDisplay:10.37,2013-06-25 19:01:00,
2013-06-25 15:06:00,76.1,72.3,29.83,West,263,3.0,3.0,88,0.08,CLR,,0.10,WeatherDisplay:10.37,2013-06-25 19:06:00,
2013-06-25 15:11:00,77.2,73.0,29.82,West,263,1.1,0.0,87,0.08,CLR,,0.10,WeatherDisplay:10.37,2013-06-25 19:11:00,
2013-06-25 15:16:00,78.3,73.1,29.82,East,81,2.0,2.0,84,0.08,CLR,,0.10,WeatherDisplay:10.37,2013-06-25 19:16:00,
2013-06-25 15:21:00,79.0,74.1,29.82,SW,233,3.5,3.5,85,0.08,CLR,,0.10,WeatherDisplay:10.37,2013-06-25 19:21:00,
2013-06-25 15:26:00,79.7,73.7,29.82,West,265,2.3,2.3,82,0.08,CLR,,0.10,WeatherDisplay:10.37,2013-06-25 19:26:00,
2013-06-25 15:31:00,80.0,73.3,29.82,SW,232,3.5,3.5,80,0.08,CLR,,0.10,WeatherDisplay:10.37,2013-06-25 19:31:00,
2013-06-25 15:36:00,80.5,74.1,29.82,NE,50,5.0,5.0,81,0.07,CLR,,0.10,WeatherDisplay:10.37,2013-06-25 19:36:00,
2013-06-25 15:41:00,80.6,74.2,29.82,WNW,295,2.3,2.3,81,0.02,CLR,,0.10,WeatherDisplay:10.37,2013-06-25 19:41:00,
2013-06-25 15:46:00,80.8,74.8,29.82,WSW,250,1.1,0.0,82,0.00,CLR,,0.10,WeatherDisplay:10.37,2013-06-25 19:46:00,
2013-06-25 15:51:00,80.8,73.7,29.82,North,1,1.1,1.1,79,0.00,CLR,,0.10,WeatherDisplay:10.37,2013-06-25 19:51:00,
2013-06-25 15:56:00,81.0,74.2,29.82,West,270,1.1,1.1,80,0.00,CLR,,0.10,WeatherDisplay:10.37,2013-06-25 19:56:00,
2013-06-25 16:01:00,81.2,74.8,29.81,WSW,257,3.5,3.5,81,0.00,CLR,,0.10,WeatherDisplay:10.37,2013-06-25 20:01:00,
2013-06-25 16:06:00,81.4,74.3,29.81,SSW,204,2.3,2.3,79,0.00,CLR,,0.10,WeatherDisplay:10.37,2013-06-25 20:06:00,
2013-06-25 16:11:00,81.4,73.1,29.81,SW,232,2.3,2.3,76,0.00,CLR,,0.10,WeatherDisplay:10.37,2013-06-25 20:11:00,
2013-06-25 16:16:00,81.7,73.0,29.81,WSW,242,3.0,3.0,75,0.00,CLR,,0.10,WeatherDisplay:10.37,2013-06-25 20:16:00,
2013-06-25 16:21:00,81.9,74.0,29.80,East,101,0.0,0.0,77,0.00,CLR,,0.10,WeatherDisplay:10.37,2013-06-25 20:21:00,
2013-06-25 16:26:00,82.1,74.6,29.81,ENE,68,1.1,0.0,78,0.00,CLR,,0.10,WeatherDisplay:10.37,2013-06-25 20:26:00,
2013-06-25 16:31:00,82.1,73.0,29.81,WNW,295,3.5,3.5,74,0.00,CLR,,0.10,WeatherDisplay:10.37,2013-06-25 20:31:00,
2013-06-25 16:36:00,81.7,73.0,29.81,East,84,2.3,2.3,75,0.00,CLR,,0.10,WeatherDisplay:10.37,2013-06-25 20:36:00,
2013-06-25 16:41:00,81.6,73.3,29.81,NW,312,1.1,1.1,76,0.00,CLR,,0.10,WeatherDisplay:10.37,2013-06-25 20:41:00,
2013-06-25 16:46:00,81.6,73.3,29.80,WNW,297,2.3,2.3,76,0.00,CLR,,0.10,WeatherDisplay:10.37,2013-06-25 20:46:00,
2013-06-25 16:51:00,81.7,74.5,29.80,WNW,298,0.0,0.0,79,0.00,CLR,,0.10,WeatherDisplay:10.37,2013-06-25 20:51:00,
2013-06-25 16:56:00,81.7,74.5,29.80,WSW,257,3.5,3.5,79,0.00,CLR,,0.10,WeatherDisplay:10.37,2013-06-25 20:56:00,
2013-06-25 17:01:00,81.9,74.4,29.80,NNE,27,0.0,0.0,78,0.00,CLR,,0.10,WeatherDisplay:10.37,2013-06-25 21:01:00,
2013-06-25 17:06:00,82.4,74.8,29.80,West,274,2.3,2.3,78,0.00,CLR,,0.10,WeatherDisplay:10.37,2013-06-25 21:06:00,
2013-06-25 17:11:00,82.1,72.6,29.80,West,266,3.5,3.5,73,0.00,CLR,,0.10,WeatherDisplay:10.37,2013-06-25 21:11:00,
2013-06-25 17:16:00,82.0,72.9,29.80,WNW,295,1.1,1.1,74,0.00,CLR,,0.10,WeatherDisplay:10.37,2013-06-25 21:16:00,
2013-06-25 17:22:00,82.1,73.0,29.79,North,4,1.1,1.1,74,0.00,CLR,,0.10,WeatherDisplay:10.37,2013-06-25 21:22:00,
2013-06-25 17:27:00,82.1,73.4,29.79,NNW,336,3.5,3.5,75,0.00,CLR,,0.10,WeatherDisplay:10.37,2013-06-25 21:27:00,
2013-06-25 17:32:00,82.0,72.1,29.79,West,281,8.1,8.1,72,0.00,CLR,,0.10,WeatherDisplay:10.37,2013-06-25 21:32:00,
2013-06-25 17:37:00,82.6,72.7,29.78,WNW,287,1.1,1.1,72,0.00,CLR,,0.10,WeatherDisplay:10.37,2013-06-25 21:37:00,
2013-06-25 17:42:00,83.0,72.6,29.78,West,278,2.3,2.3,71,0.00,CLR,,0.10,WeatherDisplay:10.37,2013-06-25 21:42:00,
2013-06-25 17:47:00,83.3,72.5,29.78,NNE,33,7.0,7.0,70,0.00,CLR,,0.10,WeatherDisplay:10.37,2013-06-25 21:47:00,
2013-06-25 17:52:00,83.2,72.4,29.77,NE,45,3.5,3.5,70,0.00,CLR,,0.10,WeatherDisplay:10.37,2013-06-25 21:52:00,
2013-06-25 17:57:00,83.5,72.3,29.77,SW,236,3.5,3.5,69,0.00,CLR,,0.10,WeatherDisplay:10.37,2013-06-25 21:57:00,
2013-06-25 18:02:00,83.8,72.1,29.77,West,266,3.5,3.5,68,0.00,CLR,,0.10,WeatherDisplay:10.37,2013-06-25 22:02:00,
2013-06-25 18:07:00,83.6,72.3,29.77,NNE,29,4.6,4.6,69,0.00,,,0.10,WeatherDisplay:10.37,2013-06-25 22:07:00,
2013-06-25 18:12:00,83.2,71.5,29.77,NW,316,1.1,1.1,68,0.00,,,0.10,WeatherDisplay:10.37,2013-06-25 22:12:00,
2013-06-25 18:17:00,83.4,71.3,29.77,NNW,342,3.0,3.0,67,0.00,,,0.10,WeatherDisplay:10.37,2013-06-25 22:17:00,
2013-06-25 18:22:00,82.9,70.8,29.76,West,273,3.5,3.5,67,0.00,,,0.10,WeatherDisplay:10.37,2013-06-25 22:22:00,
2013-06-25 18:27:00,82.4,71.2,29.77,West,267,2.3,2.3,69,0.00,,,0.10,WeatherDisplay:10.37,2013-06-25 22:27:00,
2013-06-25 18:32:00,82.9,72.5,29.77,West,278,1.1,0.0,71,0.00,,,0.10,WeatherDisplay:10.37,2013-06-25 22:32:00,
2013-06-25 18:37:00,83.7,72.9,29.77,West,278,0.0,0.0,70,0.00,,,0.10,WeatherDisplay:10.37,2013-06-25 22:37:00,
2013-06-25 18:42:00,84.1,72.4,29.77,East,82,2.3,2.3,68,0.00,,,0.10,WeatherDisplay:10.37,2013-06-25 22:42:00,
2013-06-25 18:47:00,83.2,71.1,29.76,NW,315,1.1,1.1,67,0.00,,,0.10,WeatherDisplay:10.37,2013-06-25 22:47:00,
2013-06-25 18:52:00,82.3,70.7,29.76,WSW,243,3.5,3.5,68,0.00,,,0.10,WeatherDisplay:10.37,2013-06-25 22:52:00,
2013-06-25 18:57:00,81.4,69.4,29.76,NNE,29,1.1,1.1,67,0.00,,,0.10,WeatherDisplay:10.37,2013-06-25 22:57:00,
2013-06-25 19:02:00,80.9,69.8,29.76,North,1,1.1,1.1,69,0.00,,,0.10,WeatherDisplay:10.37,2013-06-25 23:02:00,
2013-06-25 19:07:00,80.5,69.0,29.76,NNW,342,1.1,0.0,68,0.00,,,0.10,WeatherDisplay:10.37,2013-06-25 23:07:00,
2013-06-25 19:12:00,80.1,69.4,29.76,WNW,290,1.1,1.1,70,0.00,,,0.10,WeatherDisplay:10.37,2013-06-25 23:12:00,
2013-06-25 19:17:00,79.8,69.6,29.77,West,268,1.1,0.0,71,0.00,,,0.10,WeatherDisplay:10.37,2013-06-25 23:17:00,
2013-06-25 19:22:00,79.6,69.4,29.76,SSW,212,0.0,0.0,71,0.00,,,0.10,WeatherDisplay:10.37,2013-06-25 23:22:00,
2013-06-25 19:27:00,80.2,69.5,29.77,East,92,1.0,1.0,70,0.00,,,0.10,WeatherDisplay:10.37,2013-06-25 23:27:00,
2013-06-25 19:32:00,80.4,68.9,29.77,East,83,1.1,0.0,68,0.00,,,0.10,WeatherDisplay:10.37,2013-06-25 23:32:00,
2013-06-25 19:37:00,80.2,69.5,29.77,NNW,330,3.0,3.0,70,0.00,,,0.10,WeatherDisplay:10.37,2013-06-25 23:37:00,
2013-06-25 19:42:00,79.8,69.1,29.77,WNW,291,3.0,3.0,70,0.00,,,0.10,WeatherDisplay:10.37,2013-06-25 23:42:00,
2013-06-25 19:47:00,79.5,69.3,29.77,North,6,4.0,4.0,71,0.00,,,0.10,WeatherDisplay:10.37,2013-06-25 23:47:00,
2013-06-25 19:52:00,79.2,68.6,29.77,ENE,61,3.5,3.5,70,0.00,,,0.10,WeatherDisplay:10.37,2013-06-25 23:52:00,
2013-06-25 19:57:00,78.9,67.9,29.77,ENE,57,3.5,3.5,69,0.00,,,0.10,WeatherDisplay:10.37,2013-06-25 23:57:00,
2013-06-25 20:03:00,78.5,68.3,29.77,SW,233,1.1,0.0,71,0.00,,,0.10,WeatherDisplay:10.37,2013-06-26 00:03:00,
2013-06-25 20:08:00,78.1,68.3,29.77,ENE,68,0.0,0.0,72,0.00,,,0.10,WeatherDisplay:10.37,2013-06-26 00:08:00,
2013-06-25 20:13:00,77.5,68.6,29.77,East,89,0.0,0.0,74,0.00,,,0.10,WeatherDisplay:10.37,2013-06-26 00:13:00,
2013-06-25 20:18:00,77.1,68.2,29.77,WSW,257,0.0,0.0,74,0.00,,,0.10,WeatherDisplay:10.37,2013-06-26 00:18:00,
2013-06-25 20:23:00,76.6,67.7,29.77,East,96,3.5,3.5,74,0.00,,,0.10,WeatherDisplay:10.37,2013-06-26 00:23:00,
2013-06-25 20:28:00,76.5,68.0,29.77,SSW,211,1.1,1.1,75,0.00,,,0.10,WeatherDisplay:10.37,2013-06-26 00:28:00,
2013-06-25 20:33:00,76.4,68.7,29.77,West,271,1.1,1.1,77,0.00,,,0.10,WeatherDisplay:10.37,2013-06-26 00:33:00,
2013-06-25 20:38:00,76.4,66.7,29.77,NW,319,2.3,2.3,72,0.00,,,0.10,WeatherDisplay:10.37,2013-06-26 00:38:00,
2013-06-25 20:43:00,76.3,67.0,29.77,ENE,77,1.1,1.1,73,0.00,,,0.10,WeatherDisplay:10.37,2013-06-26 00:43:00,
2013-06-25 20:48:00,76.1,68.0,29.77,ENE,71,0.0,0.0,76,0.00,,,0.10,WeatherDisplay:10.37,2013-06-26 00:48:00,
2013-06-25 20:53:00,75.7,67.2,29.77,ENE,71,0.0,0.0,75,0.00,,,0.10,WeatherDisplay:10.37,2013-06-26 00:53:00,
2013-06-25 20:58:00,75.4,67.7,29.77,ENE,71,0.0,0.0,77,0.00,,,0.10,WeatherDisplay:10.37,2013-06-26 00:58:00,
2013-06-25 21:03:00,75.0,67.7,29.77,ENE,71,0.0,0.0,78,0.00,,,0.10,WeatherDisplay:10.37,2013-06-26 01:03:00,
2013-06-25 21:08:00,74.7,67.8,29.77,ENE,72,0.0,0.0,79,0.00,,,0.10,WeatherDisplay:10.37,2013-06-26 01:08:00,
2013-06-25 21:13:00,74.3,67.7,29.78,ENE,72,0.0,0.0,80,0.00,,,0.10,WeatherDisplay:10.37,2013-06-26 01:13:00,
2013-06-25 21:18:00,74.0,67.1,29.78,ENE,72,0.0,0.0,79,0.00,,,0.10,WeatherDisplay:10.37,2013-06-26 01:18:00,
2013-06-25 21:23:00,73.8,66.9,29.78,ENE,72,0.0,0.0,79,0.00,,,0.10,WeatherDisplay:10.37,2013-06-26 01:23:00,
2013-06-25 21:28:00,73.6,67.4,29.79,East,79,0.0,0.0,81,0.00,,,0.10,WeatherDisplay:10.37,2013-06-26 01:28:00,
2013-06-25 21:33:00,73.5,66.6,29.79,West,271,0.0,0.0,79,0.00,,,0.10,WeatherDisplay:10.37,2013-06-26 01:33:00,
2013-06-25 21:38:00,73.6,66.3,29.79,SE,135,2.3,2.3,78,0.00,,,0.10,WeatherDisplay:10.37,2013-06-26 01:38:00,
2013-06-25 21:43:00,73.7,66.4,29.79,SE,134,0.0,0.0,78,0.00,,,0.10,WeatherDisplay:10.37,2013-06-26 01:43:00,
2013-06-25 21:48:00,73.9,66.6,29.79,WSW,238,0.0,0.0,78,0.00,,,0.10,WeatherDisplay:10.37,2013-06-26 01:48:00,
2013-06-25 21:53:00,74.0,66.3,29.79,SW,219,1.1,0.0,77,0.00,,,0.10,WeatherDisplay:10.37,2013-06-26 01:53:00,
2013-06-25 21:58:00,74.3,66.2,29.80,WNW,283,2.3,2.3,76,0.00,,,0.10,WeatherDisplay:10.37,2013-06-26 01:58:00,
2013-06-25 22:03:00,74.3,66.6,29.80,West,259,0.0,0.0,77,0.00,,,0.10,WeatherDisplay:10.37,2013-06-26 02:03:00,
2013-06-25 22:08:00,74.0,66.3,29.80,West,263,1.1,1.1,77,0.00,,,0.10,WeatherDisplay:10.37,2013-06-26 02:08:00,
2013-06-25 22:13:00,73.8,66.1,29.80,West,263,0.0,0.0,77,0.00,,,0.10,WeatherDisplay:10.37,2013-06-26 02:13:00,
2013-06-25 22:18:00,73.7,66.4,29.80,West,263,0.0,0.0,78,0.00,,,0.10,WeatherDisplay:10.37,2013-06-26 02:18:00,
2013-06-25 22:23:00,73.5,66.6,29.80,NE,51,0.0,0.0,79,0.00,,,0.10,WeatherDisplay:10.37,2013-06-26 02:23:00,
2013-06-25 22:28:00,73.4,65.7,29.80,West,263,3.5,3.5,77,0.00,,,0.10,WeatherDisplay:10.37,2013-06-26 02:28:00,
2013-06-25 22:33:00,73.7,66.4,29.80,NE,44,0.0,0.0,78,0.00,,,0.10,WeatherDisplay:10.37,2013-06-26 02:33:00,
2013-06-25 22:38:00,73.8,65.4,29.80,NE,52,0.0,0.0,75,0.00,,,0.10,WeatherDisplay:10.37,2013-06-26 02:38:00,
2013-06-25 22:43:00,74.0,66.0,29.80,NE,47,1.1,1.1,76,0.00,,,0.10,WeatherDisplay:10.37,2013-06-26 02:43:00,
2013-06-25 22:48:00,74.0,65.6,29.80,NNW,345,2.0,2.0,75,0.00,,,0.10,WeatherDisplay:10.37,2013-06-26 02:48:00,
2013-06-25 22:54:00,74.0,65.6,29.80,NW,316,0.0,0.0,75,0.00,,,0.10,WeatherDisplay:10.37,2013-06-26 02:54:00,
2013-06-25 22:59:00,74.0,65.2,29.80,WNW,290,0.0,0.0,74,0.00,,,0.10,WeatherDisplay:10.37,2013-06-26 02:59:00,
2013-06-25 23:04:00,74.1,65.7,29.80,WNW,293,1.0,1.3,75,0.00,,,0.10,WeatherDisplay:10.37,2013-06-26 03:04:00,
2013-06-25 23:09:00,74.1,65.7,29.80,NE,56,4.6,4.6,75,0.00,,,0.10,WeatherDisplay:10.37,2013-06-26 03:09:00,
2013-06-25 23:14:00,74.1,65.7,29.80,WSW,249,0.0,0.0,75,0.00,,,0.10,WeatherDisplay:10.37,2013-06-26 03:14:00,
2013-06-25 23:19:00,74.1,65.7,29.80,West,278,6.9,6.9,75,0.00,,,0.10,WeatherDisplay:10.37,2013-06-26 03:19:00,
2013-06-25 23:24:00,74.0,65.6,29.80,SSW,194,3.5,3.5,75,0.00,,,0.10,WeatherDisplay:10.37,2013-06-26 03:24:00,
2013-06-25 23:29:00,73.8,65.8,29.80,WSW,258,4.6,4.6,76,0.00,,,0.10,WeatherDisplay:10.37,2013-06-26 03:29:00,
2013-06-25 23:34:00,73.6,65.9,29.80,West,270,5.8,5.8,77,0.00,,,0.10,WeatherDisplay:10.37,2013-06-26 03:34:00,
2013-06-25 23:39:00,73.2,66.3,29.80,WSW,238,3.5,3.5,79,0.00,,,0.10,WeatherDisplay:10.37,2013-06-26 03:39:00,
2013-06-25 23:44:00,72.8,66.3,29.80,NE,44,3.5,3.5,80,0.00,,,0.10,WeatherDisplay:10.37,2013-06-26 03:44:00,
2013-06-25 23:49:00,72.5,66.0,29.80,West,281,3.5,3.5,80,0.00,,,0.10,WeatherDisplay:10.37,2013-06-26 03:49:00,
2013-06-25 23:54:00,72.2,66.0,29.80,SSW,210,2.3,2.3,81,0.00,,,0.10,WeatherDisplay:10.37,2013-06-26 03:54:00,
2013-06-25 23:59:00,71.9,66.1,29.80,NW,304,1.1,1.1,82,0.00,,,0.10,WeatherDisplay:10.37,2013-06-26 03:59:00,